[[{"header":{"parameterUnit":"m.s-1","parameterCategory":1,"la1":30.2991,"la2":30.254,"lo1":-89.0895,"lo2":-89.0444,"dy":0.0017,"dx":0.0017,"nx":28,"ny":28,"refTime":"2024-09-01T09:00:00:Z","depth":0,"parameterNumber":2,"parameterNumberName":"U-component_of_WINDS"},"data":[0,0,0,0,0,0,0,0,0,0,0,0,0,0,0,0,0,0,0,0,0,0,0,0,0,0,0,0,0,0,0,0,0,0,0,0,0,0,0,0,0,0,0,0,0,0,0,0,0,0,0,0,0,0,0,0,0,0,-0.4768,-0.4768,0,-0.4783,-0.4783,-0.4783,-0.4774,-0.4773,-0.4773,-0.4773,-0.4789,-0.479,-0.479,0,0,0,0,0,0,0,0,0,0,0,0,0,-0.4735,-0.4736,-0.4768,-0.4768,-0.4769,-0.4783,-0.4783,-0.4783,-0.4774,-0.4773,-0.4773,-0.4772,-0.4789,-0.479,-0.4791,0,0,0,0,0,0,0,0,0,0,0,0,0,-0.475,-0.4736,-0.4768,-0.4766,-0.4766,-0.4783,-0.4783,-0.4783,-0.4774,-0.4773,-0.4773,-0.4772,-0.4788,-0.4789,-0.4791,-0.4812,0,0,-0.4795,-0.4795,0,0,0,0,0,0,0,0,-0.4749,-0.4751,-0.4766,-0.4766,-0.4766,-0.4776,-0.4777,-0.4793,-0.4774,-0.4771,-0.4772,-0.4772,-0.4785,-0.4787,-0.4791,-0.4812,-0.4813,-0.4795,-0.4795,-0.4796,-0.4796,0,0,0,0,0,0,0,-0.4748,-0.475,-0.4774,-0.4766,-0.4766,-0.4765,-0.4766,-0.478,-0.4781,-0.4771,-0.477,-0.4772,-0.4785,-0.479,-0.4791,-0.4813,-0.4795,-0.4796,-0.4796,-0.4797,-0.4854,-0.4855,0,0,0,0,0,0,-0.4747,-0.4749,-0.4773,-0.4774,-0.4755,-0.4766,-0.4767,-0.4773,-0.4781,-0.4782,-0.4773,-0.4772,-0.4788,-0.479,-0.4792,-0.4817,-0.4796,-0.4797,-0.4798,-0.4854,-0.4855,-0.4855,0,0,0,0,0,0,-0.4746,-0.4749,-0.4773,-0.4762,-0.4765,-0.4767,-0.4774,-0.4774,-0.4778,-0.4783,-0.4783,-0.4777,-0.4787,-0.479,-0.4807,-0.4818,-0.4798,-0.4799,-0.4853,-0.4854,-0.4855,-0.4868,0,0,0,0,0,0,-0.4745,-0.4749,-0.4756,-0.4762,-0.4765,-0.4787,-0.4774,-0.4775,-0.478,-0.4779,-0.4787,-0.4787,-0.4787,-0.4805,-0.4808,-0.4819,-0.48,-0.4852,-0.4853,-0.4855,-0.4867,-0.487,-0.4872,0,0,0,0,0,-0.4744,-0.4759,-0.4756,-0.4759,-0.4774,-0.4788,-0.479,-0.4789,-0.4781,-0.4789,-0.4792,-0.4787,-0.4816,-0.4807,-0.481,-0.4822,-0.4851,-0.4853,-0.4854,-0.4866,-0.4869,-0.4872,0,0,0,0,0,0,-0.4754,-0.476,-0.4757,-0.4774,-0.4781,-0.4786,-0.4796,-0.4792,-0.4801,-0.48,-0.4799,-0.48,-0.4818,-0.4822,-0.4811,-0.4843,-0.4833,-0.4835,-0.484,-0.4843,-0.4846,-0.4845,-0.4801,0,0,0,0,0,-0.4759,-0.4768,-0.4773,-0.4788,-0.4791,-0.4793,-0.4799,-0.4798,-0.4805,-0.4807,-0.4811,-0.4819,-0.483,-0.4837,-0.4847,-0.4868,-0.487,-0.4878,-0.488,-0.4882,-0.4884,-0.4897,-0.4901,-0.4861,-0.4861,-0.4861,0,0,-0.4768,-0.4772,-0.4778,-0.479,-0.4795,-0.4806,-0.4795,-0.4807,-0.4816,-0.4809,-0.4825,-0.4829,-0.4837,-0.4857,-0.4865,-0.486,-0.4896,-0.4885,-0.4886,-0.4887,-0.4899,-0.4903,-0.4906,-0.4862,-0.4862,-0.4862,0,0,-0.479,-0.4793,-0.4807,-0.4812,-0.482,-0.4821,-0.4824,-0.4831,-0.4833,-0.4849,-0.4845,-0.4856,-0.4874,-0.4881,-0.4886,-0.4913,-0.4909,-0.4916,-0.493,-0.4942,-0.4945,-0.4948,-0.4958,-0.4962,-0.4918,-0.4919,-0.4919,0,-0.48,-0.4815,-0.4814,-0.4827,-0.4833,-0.4828,-0.4842,-0.4847,-0.4858,-0.4863,-0.4857,-0.4881,-0.4886,-0.4907,-0.4914,-0.4918,-0.4923,-0.4915,-0.4945,-0.4948,-0.495,-0.496,-0.4964,-0.4919,-0.4919,-0.4919,-0.4919,0,-0.4828,-0.4839,-0.4849,-0.486,-0.4867,-0.488,-0.4882,-0.489,-0.4889,-0.4891,-0.4909,-0.4915,-0.4927,-0.4932,-0.4931,-0.4954,-0.495,-0.4945,-0.4934,-0.4955,-0.4964,-0.4967,-0.4921,-0.492,-0.492,-0.492,0,0,-0.4856,-0.4866,-0.487,-0.4875,-0.4884,-0.4893,-0.4907,-0.4918,-0.4925,-0.4933,-0.4946,-0.4962,-0.4958,-0.4964,-0.4964,-0.4975,-0.4996,-0.4968,-0.4968,-0.4973,-0.5023,-0.5027,-0.5031,-0.4994,-0.4995,-0.4996,-0.5023,0,-0.4878,-0.4901,-0.4901,-0.4923,-0.4934,-0.4931,-0.4943,-0.495,-0.4953,-0.4964,-0.4968,-0.498,-0.4972,-0.4977,-0.4987,-0.4991,-0.5006,-0.499,-0.5006,-0.5007,-0.5004,-0.5036,-0.504,-0.5065,-0.5026,-0.5027,-0.5027,0,-0.4907,-0.4916,-0.4939,-0.4947,-0.4952,-0.4963,-0.4974,-0.4984,-0.4993,-0.4995,-0.5003,-0.5002,-0.5017,-0.5007,-0.5029,-0.5017,-0.5024,-0.5028,-0.5029,-0.503,-0.5018,-0.5038,-0.5073,-0.5076,-0.5032,-0.5032,-0.5032,0,-0.4925,-0.4943,-0.496,-0.4964,-0.4974,-0.4982,-0.4987,-0.4995,-0.5003,-0.5013,-0.5018,-0.503,-0.5037,-0.5047,-0.505,-0.5042,-0.5072,-0.5061,-0.5075,-0.5075,-0.5081,-0.508,-0.5117,-0.5085,-0.5085,-0.5085,-0.5085,0,-0.495,-0.4965,-0.4968,-0.4978,-0.4994,-0.4995,-0.5012,-0.5016,-0.5024,-0.5036,-0.5034,-0.5045,-0.5047,-0.506,-0.5062,-0.508,-0.5083,-0.5086,-0.5086,-0.5086,-0.5086,-0.509,-0.5089,-0.5086,-0.5086,-0.5086,-0.5086,0,-0.4973,-0.4976,-0.4993,-0.5002,-0.5004,-0.5016,-0.5024,-0.5034,-0.5038,-0.5053,-0.5056,-0.5062,-0.5076,-0.508,-0.5097,-0.5099,-0.5121,-0.512,-0.5117,-0.5117,-0.5131,-0.5129,-0.5171,-0.5177,-0.5142,-0.5142,-0.5143,0,-0.4989,-0.4999,-0.5009,-0.5017,-0.5022,-0.5034,-0.5041,-0.5043,-0.5052,-0.5064,-0.5073,-0.5087,-0.5098,-0.5122,-0.5128,-0.5142,-0.5141,-0.5155,-0.5143,-0.5143,-0.5142,-0.5141,-0.5142,-0.5157,-0.5157,-0.5157,-0.5158,0,-0.5016,-0.5017,-0.5028,-0.504,-0.5049,-0.5058,-0.5067,-0.5074,-0.5078,-0.5087,-0.5102,-0.5111,-0.5129,-0.5143,-0.5157,-0.5163,-0.5162,-0.5162,-0.5165,-0.5165,-0.5163,-0.5165,-0.5124,-0.516,-0.516,-0.516,-0.516,-0.516,-0.5036,-0.5046,-0.5054,-0.5067,-0.5074,-0.5083,-0.5093,-0.5098,-0.511,-0.5125,-0.5126,-0.5142,-0.5152,-0.5171,-0.5178,-0.5191,-0.5187,-0.5193,-0.5194,-0.5196,-0.5197,-0.5162,-0.5194,-0.5194,-0.5194,-0.5194,-0.5194,0,-0.5064,-0.5069,-0.5081,-0.5094,-0.5104,-0.5101,-0.5112,-0.5121,-0.5135,-0.5144,-0.5156,-0.5173,-0.5188,-0.5196,-0.5211,-0.522,-0.522,-0.5224,-0.5223,-0.5225,-0.5199,-0.5195,-0.5224,-0.5224,-0.5224,-0.5224,-0.5224,-0.5224,-0.5079,-0.5096,-0.5099,-0.512,-0.5126,-0.5141,-0.5147,-0.5156,-0.5164,-0.5183,-0.5195,-0.52,-0.521,-0.5225,-0.5239,-0.5241,-0.5247,-0.5252,-0.5253,-0.5229,-0.5226,-0.5223,-0.5219,-0.5253,-0.5253,-0.5278,-0.5278,-0.5278]},{"header":{"parameterUnit":"m.s-1","parameterCategory":1,"la1":30.2991,"la2":30.254,"lo1":-89.0895,"lo2":-89.0444,"dy":0.0017,"dx":0.0017,"nx":28,"ny":28,"refTime":"2024-09-01T09:00:00:Z","depth":0,"parameterNumber":3,"parameterNumberName":"V-component_of_WINDS"},"data":[0,0,0,0,0,0,0,0,0,0,0,0,0,0,0,0,0,0,0,0,0,0,0,0,0,0,0,0,0,0,0,0,0,0,0,0,0,0,0,0,0,0,0,0,0,0,0,0,0,0,0,0,0,0,0,0,0,0,2.0065,2.0065,0,2.0069,2.0069,2.0069,2.0069,2.0069,2.0069,2.0069,2.0073,2.0073,2.0073,0,0,0,0,0,0,0,0,0,0,0,0,0,2.0061,2.0061,2.0065,2.0065,2.0066,2.0069,2.0069,2.0069,2.0069,2.0069,2.0069,2.0069,2.0073,2.0073,2.0073,0,0,0,0,0,0,0,0,0,0,0,0,0,2.0064,2.0061,2.0065,2.0066,2.0066,2.0069,2.0069,2.0069,2.0069,2.0069,2.0069,2.0069,2.0073,2.0073,2.0073,2.0075,0,0,2.0074,2.0074,0,0,0,0,0,0,0,0,2.0063,2.0064,2.0066,2.0066,2.0066,2.0068,2.0068,2.0071,2.0069,2.0068,2.0069,2.0069,2.0071,2.0072,2.0072,2.0075,2.0075,2.0074,2.0074,2.0074,2.0074,0,0,0,0,0,0,0,2.0063,2.0064,2.0067,2.0066,2.0066,2.0067,2.0067,2.0069,2.007,2.0068,2.0068,2.0069,2.0072,2.0072,2.0073,2.0075,2.0074,2.0074,2.0074,2.0074,2.0081,2.0081,0,0,0,0,0,0,2.0063,2.0064,2.0067,2.0067,2.0065,2.0067,2.0067,2.0068,2.007,2.007,2.0069,2.0069,2.0072,2.0072,2.0073,2.0076,2.0074,2.0074,2.0074,2.0081,2.0081,2.0081,0,0,0,0,0,0,2.0063,2.0063,2.0066,2.0065,2.0066,2.0067,2.0068,2.0068,2.0069,2.007,2.0071,2.0069,2.0072,2.0072,2.0075,2.0076,2.0074,2.0074,2.0081,2.0081,2.0081,2.0081,0,0,0,0,0,0,2.0063,2.0063,2.0063,2.0065,2.0066,2.0068,2.0068,2.0068,2.0069,2.0069,2.0071,2.0071,2.0072,2.0074,2.0075,2.0076,2.0074,2.0081,2.0081,2.0081,2.0081,2.0081,2.0081,0,0,0,0,0,2.0063,2.0063,2.0063,2.0064,2.0066,2.0068,2.0068,2.0069,2.0069,2.007,2.0071,2.0071,2.0076,2.0075,2.0075,2.0076,2.0081,2.0081,2.0081,2.0081,2.0081,2.0081,0,0,0,0,0,0,2.0062,2.0063,2.0064,2.0065,2.0066,2.0068,2.0069,2.0069,2.0071,2.0071,2.0072,2.0072,2.0075,2.0076,2.0075,2.0079,2.0078,2.0078,2.0078,2.0078,2.0078,2.0078,2.0075,0,0,0,0,0,2.0061,2.0063,2.0064,2.0065,2.0066,2.0067,2.0068,2.0069,2.007,2.0071,2.0072,2.0074,2.0076,2.0077,2.0079,2.0081,2.0082,2.0082,2.0083,2.0083,2.0083,2.0085,2.0085,2.0082,2.0082,2.0082,0,0,2.0061,2.0062,2.0063,2.0065,2.0066,2.0068,2.0068,2.0069,2.007,2.0071,2.0073,2.0075,2.0077,2.0079,2.008,2.008,2.0084,2.0083,2.0083,2.0083,2.0085,2.0086,2.0086,2.0082,2.0082,2.0082,0,0,2.0062,2.0063,2.0064,2.0065,2.0067,2.0068,2.0068,2.007,2.0071,2.0073,2.0074,2.0076,2.0079,2.0081,2.0082,2.0084,2.0085,2.0085,2.0086,2.0088,2.0088,2.0088,2.009,2.009,2.0085,2.0085,2.0085,0,2.0061,2.0063,2.0064,2.0066,2.0067,2.0068,2.0069,2.0071,2.0073,2.0074,2.0074,2.0078,2.008,2.0083,2.0084,2.0085,2.0086,2.0084,2.0088,2.0088,2.0088,2.009,2.009,2.0085,2.0085,2.0085,2.0085,0,2.0063,2.0064,2.0065,2.0067,2.0069,2.007,2.0072,2.0073,2.0074,2.0076,2.0078,2.008,2.0083,2.0084,2.0085,2.0088,2.0087,2.0088,2.0087,2.0089,2.009,2.009,2.0085,2.0085,2.0085,2.0085,0,0,2.0062,2.0065,2.0066,2.0067,2.007,2.0071,2.0073,2.0076,2.0077,2.0079,2.0081,2.0084,2.0085,2.0086,2.0087,2.0089,2.0091,2.0089,2.0089,2.009,2.0096,2.0095,2.0096,2.0092,2.0092,2.0092,2.0095,0,2.0063,2.0066,2.0067,2.007,2.0072,2.0073,2.0075,2.0077,2.0079,2.0081,2.0083,2.0085,2.0086,2.0087,2.0089,2.0091,2.0093,2.009,2.0094,2.0094,2.0094,2.0096,2.0096,2.0099,2.0096,2.0096,2.0096,0,2.0064,2.0066,2.0069,2.0072,2.0073,2.0074,2.0077,2.0079,2.0082,2.0083,2.0085,2.0086,2.0089,2.0089,2.0094,2.0092,2.0094,2.0095,2.0096,2.0096,2.0095,2.0097,2.01,2.01,2.0097,2.0097,2.0097,0,2.0063,2.0067,2.0069,2.007,2.0074,2.0075,2.0077,2.0079,2.0081,2.0084,2.0085,2.0088,2.009,2.0093,2.0095,2.0095,2.01,2.01,2.0101,2.0101,2.0102,2.0102,2.0105,2.0103,2.0103,2.0103,2.0103,0,2.0064,2.0066,2.0069,2.007,2.0073,2.0075,2.0077,2.0079,2.0082,2.0084,2.0086,2.0088,2.0091,2.0094,2.0096,2.01,2.0101,2.0102,2.0103,2.0102,2.0102,2.0103,2.0103,2.0103,2.0103,2.0103,2.0103,0,2.0063,2.0065,2.0068,2.0072,2.0073,2.0074,2.0077,2.0079,2.0081,2.0084,2.0085,2.0089,2.0092,2.0095,2.01,2.0101,2.0105,2.0106,2.0104,2.0104,2.0106,2.0106,2.0111,2.0111,2.0109,2.0109,2.0109,0,2.0063,2.0065,2.0069,2.007,2.0072,2.0074,2.0076,2.0079,2.0081,2.0085,2.0086,2.009,2.0093,2.0099,2.0102,2.0106,2.0107,2.0108,2.0107,2.0107,2.0107,2.0107,2.0108,2.0108,2.0108,2.0108,2.0108,0,2.0064,2.0065,2.0067,2.007,2.0073,2.0075,2.0078,2.0079,2.0082,2.0085,2.0088,2.0091,2.0096,2.01,2.0104,2.0107,2.0108,2.0109,2.0109,2.0108,2.0108,2.0108,2.0105,2.0108,2.0108,2.0108,2.0108,2.0108,2.0064,2.0065,2.0068,2.0071,2.0073,2.0076,2.0078,2.0081,2.0084,2.0088,2.009,2.0094,2.0098,2.0104,2.0106,2.011,2.011,2.0111,2.0111,2.0111,2.0111,2.0107,2.0111,2.0111,2.0111,2.0111,2.0111,0,2.0064,2.0066,2.0069,2.0073,2.0075,2.0076,2.008,2.0082,2.0085,2.0089,2.0092,2.0097,2.0101,2.0105,2.0109,2.0112,2.0112,2.0113,2.0113,2.0113,2.0111,2.011,2.0112,2.0112,2.0112,2.0112,2.0112,2.0112,2.0065,2.0067,2.0069,2.0074,2.0076,2.008,2.0082,2.0085,2.0087,2.0092,2.0096,2.0098,2.0102,2.0107,2.0112,2.0113,2.0114,2.0115,2.0116,2.0113,2.0113,2.0113,2.0112,2.0115,2.0115,2.0118,2.0118,2.0118]}]]